OHSTL EFHF-EETN

Flight info

Callsign OHSTL
Flight time N/A
Altitude 3000
Route EFHF NOKKA MUUGA EETN
Aircraft DA40/L-SDBGRY/S

Departure

Time N/A
Airport EFHF

Arrival

Time 2026-05-04 19:11
Airport Lennart Meri Tallinn Airport (EETN)
Time Latitude Longitude Altitude Speed Heading
2026-05-04 18:06 60.24967 25.04676 63 ft 0 kts 224°
2026-05-04 18:29 60.24966 25.04673 58 ft 3 kts 229°
2026-05-04 18:29 60.24964 25.04622 59 ft 5 kts 301°
2026-05-04 18:29 60.24993 25.04544 61 ft 8 kts 315°
2026-05-04 18:30 60.25040 25.04581 61 ft 10 kts 55°
2026-05-04 18:30 60.25093 25.04707 63 ft 11 kts 38°
2026-05-04 18:30 60.25139 25.04693 57 ft 7 kts 318°
2026-05-04 18:31 60.25180 25.04608 63 ft 10 kts 316°
2026-05-04 18:31 60.25240 25.04504 63 ft 13 kts 321°
2026-05-04 18:31 60.25318 25.04453 63 ft 12 kts
2026-05-04 18:31 60.25415 25.04477 63 ft 16 kts
2026-05-04 18:32 60.25532 25.04505 63 ft 18 kts
2026-05-04 18:32 60.25664 25.04533 60 ft 20 kts
2026-05-04 18:32 60.25807 25.04563 60 ft 22 kts
2026-05-04 18:32 60.25921 25.04588 60 ft 14 kts
2026-05-04 18:33 60.26007 25.04608 63 ft 9 kts 355°
2026-05-04 18:33 60.26033 25.04587 63 ft 0 kts 291°
2026-05-04 18:36 60.26036 25.04559 63 ft 8 kts 275°
2026-05-04 18:36 60.26033 25.04415 62 ft 10 kts 226°
2026-05-04 18:36 60.26015 25.04404 62 ft 0 kts 192°
2026-05-04 18:37 60.25991 25.04399 60 ft 17 kts 188°
2026-05-04 18:37 60.25686 25.04343 70 ft 66 kts 189°
2026-05-04 18:37 60.25177 25.04242 234 ft 76 kts 187°
2026-05-04 18:38 60.24657 25.04188 497 ft 74 kts 189°
2026-05-04 18:38 60.24246 25.03643 689 ft 77 kts 242°
2026-05-04 18:38 60.24044 25.02596 827 ft 85 kts 250°
2026-05-04 18:38 60.23850 25.01458 1031 ft 88 kts 254°
2026-05-04 18:39 60.23613 25.00308 1156 ft 92 kts 250°
2026-05-04 18:39 60.23313 24.99132 1323 ft 94 kts 248°
2026-05-04 18:39 60.23068 24.97922 1368 ft 99 kts 262°
2026-05-04 18:39 60.22846 24.96562 1345 ft 106 kts 246°
2026-05-04 18:40 60.22491 24.95288 1382 ft 102 kts 245°
2026-05-04 18:40 60.22138 24.94104 1473 ft 96 kts 244°
2026-05-04 18:40 60.21790 24.92970 1578 ft 95 kts 244°
2026-05-04 18:40 60.21438 24.91838 1681 ft 95 kts 244°
2026-05-04 18:41 60.21055 24.90777 1771 ft 94 kts 232°
2026-05-04 18:41 60.20694 24.90271 1839 ft 97 kts 218°
2026-05-04 18:41 60.19802 24.89914 1962 ft 102 kts 193°
2026-05-04 18:41 60.19080 24.89854 1971 ft 106 kts 194°
2026-05-04 18:42 60.18333 24.89778 1970 ft 108 kts 193°
2026-05-04 18:42 60.17824 24.89735 1972 ft 109 kts 193°
2026-05-04 18:42 60.17069 24.89673 1974 ft 108 kts 193°
2026-05-04 18:42 60.16320 24.89610 1976 ft 107 kts 193°
2026-05-04 18:43 60.15587 24.89545 1979 ft 107 kts 193°
2026-05-04 18:43 60.14838 24.89481 1977 ft 106 kts 193°
2026-05-04 18:43 60.14107 24.89417 1976 ft 107 kts 193°
2026-05-04 18:43 60.13369 24.89353 1975 ft 106 kts 194°
2026-05-04 18:44 60.12641 24.89292 1975 ft 104 kts 194°
2026-05-04 18:44 60.12159 24.89251 1976 ft 101 kts 195°
2026-05-04 18:44 60.11245 24.89173 1982 ft 97 kts 195°
2026-05-04 18:44 60.10573 24.89115 1978 ft 96 kts 195°
2026-05-04 18:45 60.09915 24.89059 2014 ft 92 kts 195°
2026-05-04 18:45 60.09294 24.89010 2129 ft 87 kts 196°
2026-05-04 18:45 60.08703 24.88962 2249 ft 83 kts 197°
2026-05-04 18:45 60.08137 24.88915 2356 ft 80 kts 197°
2026-05-04 18:46 60.07590 24.88866 2477 ft 79 kts 198°
2026-05-04 18:46 60.07030 24.88818 2607 ft 83 kts 197°
2026-05-04 18:46 60.06433 24.88763 2748 ft 89 kts 197°
2026-05-04 18:46 60.05801 24.88705 2901 ft 93 kts 196°
2026-05-04 18:47 60.05142 24.88647 3043 ft 97 kts 195°
2026-05-04 18:47 60.04461 24.88589 3194 ft 99 kts 195°
2026-05-04 18:47 60.03763 24.88540 3328 ft 102 kts 194°
2026-05-04 18:47 60.03049 24.88497 3467 ft 103 kts 194°
2026-05-04 18:48 60.02325 24.88459 3601 ft 105 kts 193°
2026-05-04 18:48 60.01594 24.88430 3739 ft 106 kts 193°
2026-05-04 18:48 60.00859 24.88410 3872 ft 106 kts 193°
2026-05-04 18:48 60.00123 24.88401 4001 ft 106 kts 193°
2026-05-04 18:49 59.99353 24.88385 4012 ft 114 kts 193°
2026-05-04 18:49 59.98550 24.88354 4018 ft 120 kts 193°
2026-05-04 18:49 59.97694 24.88309 4024 ft 123 kts 193°
2026-05-04 18:49 59.96839 24.88336 4021 ft 130 kts 178°
2026-05-04 18:50 59.95967 24.88952 4028 ft 134 kts 170°
2026-05-04 18:50 59.95091 24.89591 4028 ft 134 kts 170°
2026-05-04 18:50 59.94216 24.90226 4028 ft 134 kts 170°
2026-05-04 18:50 59.93337 24.90865 4030 ft 134 kts 170°
2026-05-04 18:51 59.92456 24.91502 4032 ft 135 kts 170°
2026-05-04 18:51 59.91573 24.92137 4033 ft 135 kts 170°
2026-05-04 18:51 59.90687 24.92771 4027 ft 135 kts 170°
2026-05-04 18:51 59.89799 24.93404 4022 ft 136 kts 170°
2026-05-04 18:52 59.88910 24.94037 4022 ft 136 kts 170°
2026-05-04 18:52 59.88020 24.94672 4025 ft 136 kts 170°
2026-05-04 18:52 59.87131 24.95306 4025 ft 136 kts 170°
2026-05-04 18:52 59.86241 24.95940 4024 ft 136 kts 170°
2026-05-04 18:53 59.85353 24.96573 4024 ft 136 kts 170°
2026-05-04 18:53 59.84599 24.97107 4027 ft 136 kts 170°
2026-05-04 18:53 59.83710 24.97737 4024 ft 136 kts 170°
2026-05-04 18:54 59.82819 24.98363 4023 ft 135 kts 170°
2026-05-04 18:54 59.81944 24.98983 4024 ft 135 kts 170°
2026-05-04 18:54 59.81057 24.99610 4021 ft 135 kts 171°
2026-05-04 18:54 59.80170 25.00236 4022 ft 135 kts 170°
2026-05-04 18:55 59.79282 25.00856 4025 ft 135 kts 170°
2026-05-04 18:55 59.77505 25.02093 4022 ft 135 kts 170°
2026-05-04 18:55 59.76618 25.02711 4021 ft 135 kts 170°
2026-05-04 18:56 59.75731 25.03331 4021 ft 135 kts 170°
2026-05-04 18:56 59.74843 25.03949 4022 ft 135 kts 170°
2026-05-04 18:56 59.73957 25.04569 4022 ft 135 kts 170°
2026-05-04 18:56 59.73069 25.05188 4024 ft 135 kts 170°
2026-05-04 18:57 59.72181 25.05806 4025 ft 135 kts 170°
2026-05-04 18:57 59.71293 25.06418 4024 ft 134 kts 173°
2026-05-04 18:57 59.70408 25.06517 4021 ft 126 kts 192°
2026-05-04 18:57 59.69531 25.06475 4026 ft 126 kts 191°
2026-05-04 18:58 59.68651 25.06497 4024 ft 127 kts 188°
2026-05-04 18:58 59.67765 25.06575 4029 ft 128 kts 187°
2026-05-04 18:58 59.66879 25.06676 4028 ft 128 kts 187°
2026-05-04 18:58 59.65991 25.06784 4028 ft 128 kts 187°
2026-05-04 18:59 59.65103 25.06896 4031 ft 128 kts 187°
2026-05-04 18:59 59.64217 25.07010 4032 ft 128 kts 187°
2026-05-04 18:59 59.63335 25.07123 4009 ft 126 kts 187°
2026-05-04 18:59 59.62457 25.07233 3903 ft 127 kts 187°
2026-05-04 19:00 59.61575 25.07346 3771 ft 127 kts 186°
2026-05-04 19:00 59.60696 25.07459 3665 ft 127 kts 186°
2026-05-04 19:00 59.59817 25.07572 3540 ft 127 kts 186°
2026-05-04 19:00 59.58947 25.07682 3425 ft 127 kts 186°
2026-05-04 19:01 59.58057 25.07796 3306 ft 127 kts 186°
2026-05-04 19:01 59.57190 25.07907 3193 ft 126 kts 186°
2026-05-04 19:01 59.56315 25.08018 3050 ft 126 kts 186°
2026-05-04 19:01 59.55433 25.08130 2892 ft 127 kts 185°
2026-05-04 19:02 59.54556 25.08242 2740 ft 126 kts 185°
2026-05-04 19:02 59.53682 25.08354 2587 ft 125 kts 185°
2026-05-04 19:02 59.52815 25.08464 2440 ft 125 kts 185°
2026-05-04 19:02 59.51950 25.08574 2294 ft 124 kts 185°
2026-05-04 19:03 59.51109 25.08685 2247 ft 117 kts 185°
2026-05-04 19:03 59.50300 25.08788 2246 ft 116 kts 185°
2026-05-04 19:03 59.49494 25.08890 2246 ft 115 kts 184°
2026-05-04 19:03 59.48695 25.08991 2240 ft 115 kts 185°
2026-05-04 19:04 59.47900 25.09091 2242 ft 114 kts 184°
2026-05-04 19:04 59.47106 25.09192 2240 ft 115 kts 184°
2026-05-04 19:04 59.46307 25.09292 2242 ft 115 kts 184°
2026-05-04 19:04 59.45506 25.09394 2243 ft 116 kts 185°
2026-05-04 19:05 59.44704 25.09496 2247 ft 116 kts 185°
2026-05-04 19:05 59.43900 25.09595 2240 ft 116 kts 185°
2026-05-04 19:05 59.43098 25.09763 2242 ft 115 kts 183°
2026-05-04 19:05 59.42361 25.09473 2244 ft 106 kts 207°
2026-05-04 19:06 59.41660 25.09027 2244 ft 106 kts 206°
2026-05-04 19:06 59.40960 25.08568 2236 ft 104 kts 218°
2026-05-04 19:06 59.40690 25.07381 2150 ft 102 kts 276°
2026-05-04 19:06 59.41001 25.06164 2181 ft 99 kts 305°
2026-05-04 19:07 59.41532 25.05353 2248 ft 95 kts 302°
2026-05-04 19:07 59.41547 25.04110 2176 ft 101 kts 258°
2026-05-04 19:07 59.41422 25.02711 1950 ft 107 kts 262°
2026-05-04 19:07 59.41319 25.01264 1725 ft 105 kts 266°
2026-05-04 19:08 59.41293 24.99901 1546 ft 93 kts 269°
2026-05-04 19:08 59.41285 24.98709 1414 ft 83 kts 268°
2026-05-04 19:08 59.41284 24.97607 1311 ft 78 kts 270°
2026-05-04 19:08 59.41287 24.96600 1206 ft 69 kts 270°
2026-05-04 19:09 59.41288 24.95665 1106 ft 70 kts 270°
2026-05-04 19:09 59.41290 24.94697 1001 ft 72 kts 269°
2026-05-04 19:09 59.41292 24.93716 900 ft 73 kts 269°
2026-05-04 19:09 59.41295 24.92815 797 ft 59 kts 269°
2026-05-04 19:10 59.41294 24.92038 729 ft 63 kts 268°
2026-05-04 19:10 59.41300 24.91091 632 ft 72 kts 269°
2026-05-04 19:10 59.41308 24.90101 521 ft 75 kts 270°
2026-05-04 19:10 59.41316 24.89092 425 ft 73 kts 269°
2026-05-04 19:11 59.41322 24.88101 319 ft 73 kts 270°
2026-05-04 19:11 59.41323 24.87112 204 ft 73 kts 270°
2026-05-04 19:11 59.41324 24.86233 142 ft 53 kts 268°
2026-05-04 19:11 59.41322 24.85639 136 ft 36 kts 271°
2026-05-04 19:12 59.41322 24.85254 138 ft 24 kts 269°
2026-05-04 19:12 59.41444 24.84998 135 ft 14 kts 359°
2026-05-04 19:12 59.41493 24.84860 135 ft 14 kts 276°
2026-05-04 19:13 59.41494 24.84662 135 ft 14 kts 269°
2026-05-04 19:13 59.41495 24.84470 135 ft 14 kts 271°
2026-05-04 19:13 59.41498 24.84280 135 ft 14 kts 270°
2026-05-04 19:13 59.41497 24.84062 135 ft 19 kts 269°
2026-05-04 19:14 59.41498 24.83768 135 ft 24 kts 271°
2026-05-04 19:14 59.41499 24.83415 135 ft 27 kts 269°
2026-05-04 19:14 59.41501 24.83118 134 ft 12 kts 286°
2026-05-04 19:14 59.41543 24.83083 134 ft 5 kts 352°
2026-05-04 19:15 59.41558 24.83012 134 ft 9 kts 270°
2026-05-04 19:15 59.41552 24.82906 134 ft 6 kts 236°
2026-05-04 19:15 59.41546 24.82872 134 ft 2 kts 301°
2026-05-04 19:15 59.41549 24.82868 134 ft 0 kts